Location: Fredericksburg
(30.2750°N, 98.8720°W)
Time: 02:25:05
(UTC-06:00)

PCSat - Visible Passes

Search period start: 15 December 2017 00:00
Search period end: 25 December 2017 00:00
Orbit: 786 x 794 km, 67.1° (Epoch: 14 December)

Date Brightness Start Highest point End Pass type
(mag) Time Alt. Az. Time Alt. Az. Time Alt. Az.
15 Dec 11.5 04:25:09 25° ESE 04:25:09 25° ESE 04:27:34 10° SE visible
15 Dec 11.0 06:05:56 18° WSW 06:05:56 18° WSW 06:09:01 10° SSW visible
15 Dec 10.0 18:52:43 10° SW 18:58:03 62° WNW 19:03:08 12° NNE visible
16 Dec 12.5 03:56:04 11° ESE 03:56:04 11° ESE 03:56:12 10° ESE visible
16 Dec 11.1 05:36:50 20° SW 05:36:50 20° SW 05:39:07 10° SSW visible
16 Dec 9.6 18:21:45 10° SSW 18:27:09 90° NW 18:32:35 10° NNE visible
16 Dec 12.4 20:10:36 10° WNW 20:11:13 10° NW 20:11:51 10° NW visible
17 Dec 11.6 05:07:44 16° S 05:07:44 16° S 05:08:51 10° S visible
17 Dec 12.1 19:37:05 10° W 19:40:04 15° NW 19:43:03 10° NNW visible
18 Dec 11.8 19:05:00 10° WSW 19:08:58 21° NW 19:12:59 10° N visible
19 Dec 11.3 18:33:17 10° WSW 18:37:55 29° WNW 18:42:36 10° N visible
20 Dec 10.8 18:01:52 10° SW 18:06:55 41° WNW 18:12:02 10° N visible
23 Dec 12.0 18:15:16 10° W 18:18:01 14° NW 18:20:47 10° NNW visible
